[[{"header":{"parameterUnit":"m.s-1","parameterCategory":1,"la1":30.2991,"la2":30.254,"lo1":-89.0895,"lo2":-89.0444,"dy":0.0017,"dx":0.0017,"nx":28,"ny":28,"refTime":"2023-03-16T21:00:00:Z","depth":0,"parameterNumber":2,"parameterNumberName":"U-component_of_WINDS"},"data":[0,0,0,0,0,0,0,0,0,0,0,0,0,0,0,0,0,0,0,0,0,0,0,0,0,0,0,0,0,0,0,0,0,0,0,0,0,0,0,0,0,0,0,0,0,0,0,0,0,0,0,0,0,0,0,0,0,0,-0.0438,-0.0438,0,-0.0442,-0.0442,-0.0442,-0.0453,-0.0453,-0.0453,-0.0453,-0.0456,-0.0456,-0.0456,0,0,0,0,0,0,0,0,0,0,0,0,0,-0.0439,-0.0439,-0.0438,-0.0438,-0.0438,-0.0442,-0.0442,-0.0442,-0.0453,-0.0453,-0.0453,-0.0453,-0.0456,-0.0456,-0.0456,0,0,0,0,0,0,0,0,0,0,0,0,0,-0.044,-0.0439,-0.0438,-0.0444,-0.0444,-0.0442,-0.0442,-0.0442,-0.0452,-0.0453,-0.0453,-0.0454,-0.0456,-0.0456,-0.0456,-0.0448,0,0,-0.0455,-0.0455,0,0,0,0,0,0,0,0,-0.044,-0.044,-0.0443,-0.0443,-0.0444,-0.0447,-0.0443,-0.0444,-0.0452,-0.0449,-0.0453,-0.0454,-0.0453,-0.0453,-0.0453,-0.0448,-0.0448,-0.0455,-0.0455,-0.0455,-0.0455,0,0,0,0,0,0,0,-0.044,-0.044,-0.0439,-0.0443,-0.0444,-0.0446,-0.0447,-0.0443,-0.0449,-0.045,-0.045,-0.0451,-0.0453,-0.0453,-0.0453,-0.0448,-0.0455,-0.0455,-0.0455,-0.0455,-0.0436,-0.0436,0,0,0,0,0,0,-0.0439,-0.044,-0.0439,-0.044,-0.0443,-0.0446,-0.0446,-0.0446,-0.0449,-0.045,-0.0451,-0.0451,-0.0453,-0.0453,-0.0453,-0.0443,-0.0455,-0.0455,-0.0455,-0.0436,-0.0436,-0.0436,0,0,0,0,0,0,-0.0439,-0.0439,-0.0439,-0.044,-0.044,-0.0445,-0.0445,-0.0446,-0.0445,-0.045,-0.0451,-0.0449,-0.0453,-0.0453,-0.0449,-0.0444,-0.0455,-0.0455,-0.0437,-0.0436,-0.0436,-0.0424,0,0,0,0,0,0,-0.0439,-0.0439,-0.0436,-0.044,-0.044,-0.0435,-0.0444,-0.0445,-0.0445,-0.0446,-0.0449,-0.045,-0.0454,-0.0449,-0.0449,-0.0444,-0.0454,-0.0437,-0.0437,-0.0436,-0.0425,-0.0423,-0.0422,0,0,0,0,0,-0.0439,-0.0432,-0.0436,-0.0436,-0.0437,-0.0435,-0.0435,-0.044,-0.0445,-0.0442,-0.0445,-0.045,-0.0445,-0.0449,-0.0448,-0.0443,-0.0438,-0.0437,-0.0436,-0.0426,-0.0424,-0.0422,0,0,0,0,0,0,-0.0427,-0.0433,-0.0437,-0.0431,-0.0432,-0.0437,-0.0433,-0.0438,-0.0437,-0.0438,-0.0444,-0.0445,-0.0439,-0.0441,-0.0445,-0.0435,-0.0442,-0.0441,-0.0434,-0.0432,-0.0431,-0.043,-0.0454,0,0,0,0,0,-0.0424,-0.0423,-0.0427,-0.0422,-0.0422,-0.0428,-0.0427,-0.0431,-0.0432,-0.0433,-0.0435,-0.0436,-0.0435,-0.0434,-0.0433,-0.0426,-0.0426,-0.0422,-0.042,-0.0419,-0.0418,-0.0414,-0.0412,-0.0433,-0.0433,-0.0433,0,0,-0.0417,-0.042,-0.0419,-0.042,-0.0421,-0.0419,-0.0428,-0.0425,-0.0424,-0.0432,-0.0428,-0.043,-0.0432,-0.0426,-0.0423,-0.0427,-0.0412,-0.0418,-0.0417,-0.0416,-0.0413,-0.0411,-0.0409,-0.0432,-0.0432,-0.0433,0,0,-0.0404,-0.0406,-0.0402,-0.0403,-0.0405,-0.0409,-0.0408,-0.0411,-0.0413,-0.0409,-0.0416,-0.0414,-0.0411,-0.0412,-0.0412,-0.0399,-0.0404,-0.0399,-0.039,-0.0386,-0.0385,-0.0383,-0.0378,-0.0376,-0.0398,-0.0398,-0.0398,0,-0.0395,-0.0392,-0.0399,-0.0396,-0.0396,-0.0404,-0.0399,-0.04,-0.0402,-0.0402,-0.0406,-0.0403,-0.0405,-0.0399,-0.0396,-0.0396,-0.0395,-0.0398,-0.0384,-0.0383,-0.0382,-0.0377,-0.0375,-0.0397,-0.0397,-0.0397,-0.0397,0,-0.0381,-0.0379,-0.0375,-0.0377,-0.0377,-0.0373,-0.0379,-0.0378,-0.0382,-0.0385,-0.0381,-0.0383,-0.0382,-0.0382,-0.0385,-0.0376,-0.0378,-0.0383,-0.039,-0.0379,-0.0375,-0.0373,-0.0396,-0.0397,-0.0397,-0.0397,0,0,-0.036,-0.0365,-0.0364,-0.0365,-0.0368,-0.0367,-0.0363,-0.0363,-0.0362,-0.0363,-0.036,-0.0358,-0.0363,-0.0363,-0.0367,-0.0364,-0.0353,-0.0369,-0.0369,-0.0366,-0.0343,-0.0339,-0.0337,-0.0356,-0.0356,-0.0356,-0.0343,0,-0.0346,-0.0341,-0.0347,-0.034,-0.0339,-0.0347,-0.0344,-0.0345,-0.0348,-0.0347,-0.035,-0.0348,-0.0355,-0.0355,-0.0352,-0.0355,-0.0348,-0.0356,-0.0353,-0.0353,-0.0352,-0.0334,-0.033,-0.0317,-0.0341,-0.0341,-0.0341,0,-0.033,-0.0331,-0.0324,-0.0328,-0.0328,-0.0325,-0.0325,-0.0324,-0.0326,-0.0328,-0.0329,-0.0334,-0.0331,-0.0338,-0.0333,-0.0338,-0.0338,-0.0339,-0.0338,-0.0338,-0.0346,-0.0333,-0.0314,-0.0311,-0.0338,-0.0338,-0.0338,0,-0.0315,-0.0314,-0.031,-0.0311,-0.0315,-0.0313,-0.0315,-0.0317,-0.0317,-0.0317,-0.0317,-0.0317,-0.0317,-0.0316,-0.0321,-0.0326,-0.0316,-0.0323,-0.0317,-0.0317,-0.0314,-0.0314,-0.0294,-0.0315,-0.0315,-0.0315,-0.0315,0,-0.0299,-0.0295,-0.0303,-0.03,-0.0296,-0.0302,-0.0297,-0.03,-0.0302,-0.03,-0.0307,-0.0304,-0.0311,-0.031,-0.0313,-0.0309,-0.0309,-0.031,-0.0311,-0.0309,-0.0309,-0.0308,-0.0309,-0.0314,-0.0314,-0.0314,-0.0314,0,-0.0281,-0.0286,-0.0282,-0.0287,-0.0288,-0.0284,-0.0288,-0.0286,-0.029,-0.0287,-0.0286,-0.0292,-0.029,-0.0295,-0.0295,-0.0297,-0.029,-0.0293,-0.029,-0.029,-0.0284,-0.0284,-0.0262,-0.0259,-0.0282,-0.0282,-0.0282,0,-0.027,-0.0267,-0.0272,-0.0271,-0.0272,-0.0271,-0.0271,-0.0277,-0.0277,-0.0279,-0.0276,-0.0276,-0.0275,-0.0272,-0.0276,-0.0276,-0.0278,-0.027,-0.0278,-0.0276,-0.0277,-0.0277,-0.0277,-0.0268,-0.0268,-0.0268,-0.0268,0,-0.0251,-0.0254,-0.0253,-0.0254,-0.0254,-0.0254,-0.0255,-0.0254,-0.0261,-0.026,-0.0259,-0.0259,-0.0258,-0.0257,-0.0258,-0.0259,-0.0264,-0.0265,-0.0264,-0.0262,-0.026,-0.026,-0.0285,-0.0266,-0.0266,-0.0266,-0.0266,-0.0266,-0.0236,-0.0233,-0.0236,-0.0235,-0.0237,-0.0238,-0.0236,-0.0239,-0.0239,-0.0239,-0.0243,-0.0241,-0.0243,-0.0244,-0.0245,-0.0243,-0.0247,-0.0245,-0.0244,-0.0243,-0.0242,-0.026,-0.0244,-0.0244,-0.0244,-0.0244,-0.0244,0,-0.0216,-0.0219,-0.0218,-0.0219,-0.0219,-0.0225,-0.0226,-0.0225,-0.0223,-0.0225,-0.0225,-0.0223,-0.0223,-0.0226,-0.0226,-0.0224,-0.0226,-0.0223,-0.0223,-0.0224,-0.0239,-0.024,-0.0222,-0.0222,-0.0222,-0.0222,-0.0222,-0.0222,-0.0206,-0.0202,-0.0205,-0.0202,-0.0204,-0.0203,-0.0203,-0.0204,-0.0205,-0.0203,-0.0203,-0.0206,-0.0208,-0.0208,-0.0207,-0.0209,-0.0208,-0.0204,-0.0206,-0.022,-0.0222,-0.0225,-0.0226,-0.0204,-0.0204,-0.0191,-0.0191,-0.019]},{"header":{"parameterUnit":"m.s-1","parameterCategory":1,"la1":30.2991,"la2":30.254,"lo1":-89.0895,"lo2":-89.0444,"dy":0.0017,"dx":0.0017,"nx":28,"ny":28,"refTime":"2023-03-16T21:00:00:Z","depth":0,"parameterNumber":3,"parameterNumberName":"V-component_of_WINDS"},"data":[0,0,0,0,0,0,0,0,0,0,0,0,0,0,0,0,0,0,0,0,0,0,0,0,0,0,0,0,0,0,0,0,0,0,0,0,0,0,0,0,0,0,0,0,0,0,0,0,0,0,0,0,0,0,0,0,0,0,6.5238,6.524,0,6.5392,6.5394,6.5396,6.5413,6.5411,6.541,6.5408,6.5559,6.5564,6.5569,0,0,0,0,0,0,0,0,0,0,0,0,0,6.4952,6.4957,6.5238,6.524,6.5242,6.5392,6.5394,6.5396,6.5413,6.5411,6.5409,6.5408,6.5557,6.5563,6.557,0,0,0,0,0,0,0,0,0,0,0,0,0,6.5088,6.4959,6.5238,6.5269,6.5273,6.5391,6.5394,6.5397,6.5413,6.5411,6.5409,6.5407,6.5555,6.5562,6.5571,6.5666,0,0,6.5595,6.5599,0,0,0,0,0,0,0,0,6.508,6.5098,6.5262,6.5267,6.5272,6.5381,6.5348,6.5487,6.5414,6.536,6.5408,6.5406,6.5501,6.5513,6.5547,6.5673,6.568,6.5596,6.5601,6.5604,6.5607,0,0,0,0,0,0,0,6.5071,6.5092,6.5299,6.5265,6.527,6.5273,6.5289,6.5375,6.5441,6.5364,6.5366,6.5384,6.5503,6.5539,6.5551,6.5682,6.5596,6.5603,6.5608,6.5611,6.5895,6.5898,0,0,0,0,0,0,6.5057,6.5084,6.5294,6.5303,6.5169,6.528,6.5298,6.5348,6.544,6.5452,6.5386,6.5385,6.5526,6.5541,6.5556,6.5675,6.5604,6.5612,6.5617,6.5893,6.5896,6.5899,0,0,0,0,0,0,6.505,6.5075,6.5288,6.5194,6.5222,6.5287,6.5343,6.5352,6.5389,6.5457,6.5468,6.5411,6.5525,6.5544,6.5639,6.568,6.5616,6.5623,6.5889,6.5894,6.5897,6.5913,0,0,0,0,0,0,6.5042,6.5073,6.5112,6.5195,6.5227,6.5371,6.5345,6.5357,6.5404,6.5403,6.5483,6.5494,6.5525,6.5627,6.5648,6.569,6.5629,6.5886,6.5891,6.5896,6.5909,6.5917,6.5924,0,0,0,0,0,6.5032,6.5108,6.5114,6.5139,6.5277,6.5373,6.5391,6.5426,6.5407,6.5445,6.5489,6.5492,6.5672,6.5637,6.566,6.5706,6.5884,6.589,6.5896,6.5906,6.5916,6.5924,0,0,0,0,0,0,6.5025,6.512,6.5127,6.5233,6.5295,6.5376,6.5426,6.5435,6.5503,6.5499,6.5538,6.5556,6.5649,6.5687,6.5645,6.5803,6.5776,6.5787,6.5776,6.5786,6.5793,6.5782,6.5636,0,0,0,0,0,6.5036,6.5109,6.5187,6.5273,6.5304,6.536,6.5403,6.5425,6.549,6.5516,6.5567,6.5628,6.5698,6.5744,6.5812,6.5915,6.5932,6.5957,6.5965,6.597,6.5979,6.6036,6.6048,6.5918,6.5918,6.5918,0,0,6.5059,6.512,6.5163,6.5273,6.5324,6.5397,6.5382,6.5459,6.5513,6.5527,6.5621,6.566,6.573,6.583,6.5876,6.5864,6.6019,6.5978,6.5982,6.5988,6.6044,6.6056,6.6067,6.5922,6.5922,6.5921,0,0,6.5139,6.5193,6.5271,6.5323,6.5401,6.5438,6.5456,6.5537,6.5564,6.5659,6.5672,6.5735,6.5855,6.5906,6.5947,6.6046,6.6051,6.6067,6.6106,6.6161,6.6171,6.618,6.6216,6.6228,6.6076,6.6076,6.6076,0,6.5158,6.527,6.5309,6.5387,6.5435,6.5454,6.5532,6.5579,6.5675,6.5706,6.5692,6.5845,6.5893,6.6005,6.6029,6.6062,6.6083,6.6058,6.6167,6.6176,6.6186,6.622,6.6233,6.6077,6.6077,6.6077,6.6077,0,6.5289,6.5367,6.542,6.5515,6.5569,6.5646,6.5695,6.5744,6.5761,6.5798,6.5894,6.5954,6.6035,6.6063,6.6079,6.6177,6.6167,6.6159,6.6132,6.6199,6.6232,6.6245,6.6079,6.6079,6.6078,6.6078,0,0,6.5369,6.5486,6.5505,6.5548,6.5636,6.5696,6.5774,6.5856,6.5897,6.5962,6.6027,6.613,6.6124,6.617,6.6192,6.6241,6.6316,6.6227,6.6229,6.6242,6.6427,6.6433,6.6448,6.632,6.6322,6.6324,6.6421,0,6.5459,6.5602,6.5639,6.5759,6.5831,6.585,6.5917,6.5977,6.6014,6.6079,6.6118,6.619,6.6176,6.6205,6.6254,6.6297,6.6354,6.629,6.638,6.6382,6.6362,6.6465,6.6471,6.656,6.6434,6.6436,6.6438,0,6.5584,6.5655,6.5783,6.5863,6.5894,6.5955,6.6033,6.6095,6.6163,6.6186,6.6239,6.6257,6.6337,6.6306,6.6415,6.6371,6.641,6.6436,6.644,6.645,6.6415,6.6478,6.6589,6.6602,6.6459,6.6457,6.6456,0,6.563,6.5757,6.5851,6.5887,6.5982,6.6024,6.6065,6.6131,6.6179,6.6246,6.6277,6.6352,6.6393,6.6449,6.6486,6.646,6.6593,6.6564,6.6613,6.6612,6.6641,6.6638,6.676,6.6664,6.6664,6.6664,6.6664,0,6.5728,6.5805,6.5873,6.593,6.6018,6.6059,6.6143,6.6184,6.6243,6.6307,6.6326,6.6385,6.643,6.6495,6.6524,6.661,6.6628,6.6648,6.6655,6.6647,6.6645,6.6673,6.6668,6.6668,6.6667,6.6666,6.6665,0,6.5794,6.5843,6.5946,6.6028,6.6051,6.6111,6.6181,6.6236,6.6273,6.6354,6.6376,6.6434,6.6511,6.6554,6.665,6.6669,6.6766,6.6769,6.6744,6.6747,6.6794,6.6789,6.6938,6.696,6.6849,6.685,6.6851,0,6.5854,6.5914,6.6004,6.605,6.6093,6.6166,6.6215,6.6257,6.6307,6.6389,6.6434,6.6513,6.6579,6.6701,6.6751,6.6824,6.683,6.6877,6.684,6.6831,6.6831,6.6827,6.6833,6.6883,6.6884,6.6885,6.6885,0,6.5954,6.5976,6.6047,6.6127,6.6186,6.6251,6.6314,6.635,6.6402,6.6456,6.6537,6.6589,6.6688,6.6766,6.6844,6.6883,6.6893,6.6897,6.6912,6.6904,6.6888,6.6898,6.6762,6.6893,6.6892,6.6892,6.6891,6.6891,6.6019,6.6075,6.6147,6.6226,6.6279,6.6338,6.6395,6.644,6.651,6.6596,6.6616,6.6701,6.6766,6.6872,6.6914,6.698,6.697,6.6992,6.6998,6.7003,6.7005,6.6877,6.6994,6.6994,6.6993,6.6993,6.6993,0,6.6122,6.6169,6.6242,6.6332,6.6393,6.64,6.647,6.6521,6.6597,6.6658,6.6724,6.6816,6.6892,6.6948,6.7025,6.7067,6.7073,6.7085,6.7083,6.7092,6.7009,6.6988,6.7079,6.7079,6.7079,6.7079,6.7079,6.7079,6.6182,6.6276,6.6306,6.6426,6.6472,6.6559,6.6598,6.6652,6.6702,6.6806,6.687,6.6907,6.6966,6.7048,6.7117,6.7131,6.7158,6.7171,6.7185,6.7107,6.7097,6.7089,6.707,6.7176,6.7176,6.7263,6.7263,6.7264]}]]